Plymouth, NH

3:50 AM EDT on June 25, 2017 (GMT -0400)
Plymouth

Weather History for K1P1 - November, 2012

Change the Weather History Date:

Monday, November 5, 2012

  Actual Average (KLCI) Record (KLCI)
Temperature  
Mean Temperature 34 °F -  
Max Temperature 37 °F 53 °F 73 °F (1987)
Min Temperature 30 °F 34 °F 22 °F (1986)
Degree Days  
Heating Degree Days 32    
Moisture  
Dew Point 21 °F    
Average Humidity 60    
Maximum Humidity 70    
Minimum Humidity 45    
Precipitation  
Precipitation 0.00 in - - ()
Sea Level Pressure  
Sea Level Pressure 30.01 in    
Wind  
Wind Speed 10 mph (NW)    
Max Wind Speed 14 mph    
Max Gust Speed 22 mph    
Visibility 10 miles    
Events      
Averages and records for this station are not official NWS values.
T = Trace of Precipitation, MM = Missing Value Source: NWS Daily Summary

Daily Weather History Graph

Daily Weather History Graph

Search for Another Location

Airport or City:

Trip Planner

Search our weather history database for the weather conditions in past years. The results will help you decide how hot, cold, wet, or windy it might be!

Date:

Astronomy

Nov. 05, 2012 Rise Set
Actual Time 6:28 AM EST 4:31 PM EST
Civil Twilight 5:58 AM EST 5:02 PM EST
Nautical Twilight 5:24 AM EST 5:36 PM EST
Astronomical Twilight 4:50 AM EST 6:09 PM EST
Moon 10:06 PM EST (11/5) 11:47 AM EST (11/5)
Length of Visible Light 11h 03m
Length of Day
10h 02m
Waning Gibbous, 63% of the Moon is Illuminated
Nov 5
Waning Gibbous
Nov 6
Last Quarter
Nov 13
New
Nov 20
First Quarter
Nov 28
Full

Hourly Weather History & Observations

Time (EST) Temp. Windchill Dew Point Humidity Pressure Visibility Wind Dir Wind Speed Gust Speed Precip Events Conditions
12:15 AM 35.6 °F 26.6 °F 25.7 °F 67% 29.94 in 10.0 mi NW 13.8 mph 19.6 mph N/A   Overcast
12:35 AM 35.6 °F 27.1 °F 25.2 °F 66% 29.94 in 10.0 mi NW 12.7 mph 17.3 mph N/A   Overcast
12:55 AM 35.6 °F 26.6 °F 24.8 °F 65% 29.94 in 10.0 mi NW 13.8 mph 18.4 mph N/A   Overcast
1:15 AM 35.6 °F 27.1 °F 25.0 °F 65% 29.94 in 10.0 mi NW 12.7 mph 19.6 mph N/A   Overcast
1:35 AM 35.6 °F 27.1 °F 24.4 °F 64% 29.94 in 10.0 mi NW 12.7 mph 16.1 mph N/A   Overcast
1:55 AM 35.6 °F 29.2 °F 24.1 °F 63% 29.95 in 10.0 mi NW 8.1 mph 16.1 mph N/A   Overcast
2:15 AM 35.2 °F 26.6 °F 23.7 °F 63% 29.94 in 10.0 mi NW 12.7 mph 20.7 mph N/A   Overcast
2:35 AM 35.2 °F 27.6 °F 23.9 °F 63% 29.94 in 10.0 mi NW 10.4 mph 16.1 mph N/A   Overcast
2:55 AM 35.2 °F 28.1 °F 23.5 °F 62% 29.94 in 10.0 mi NW 9.2 mph - N/A   Overcast
3:15 AM 35.1 °F 28.6 °F 23.9 °F 64% 29.94 in 10.0 mi NW 8.1 mph - N/A   Overcast
3:35 AM 35.1 °F 27.4 °F 23.5 °F 63% 29.95 in 10.0 mi NW 10.4 mph - N/A   Overcast
3:55 AM 34.9 °F 26.6 °F 23.0 °F 62% 29.95 in 10.0 mi NW 11.5 mph - N/A   Overcast
4:15 AM 34.9 °F 26.6 °F 22.8 °F 61% 29.96 in 10.0 mi NW 11.5 mph - N/A   Overcast
4:35 AM 34.7 °F 26.4 °F 23.0 °F 62% 29.96 in 10.0 mi NW 11.5 mph 16.1 mph N/A   Overcast
4:55 AM 34.7 °F 27.5 °F 22.8 °F 62% 29.96 in 10.0 mi NW 9.2 mph - N/A   Overcast
5:15 AM 34.3 °F 26.5 °F 22.5 °F 62% 29.96 in 10.0 mi WNW 10.4 mph - N/A   Overcast
5:35 AM 34.2 °F 26.2 °F 22.3 °F 62% 29.96 in 10.0 mi NW 10.4 mph - N/A   Overcast
5:55 AM 33.8 °F 26.4 °F 21.6 °F 61% 29.96 in 10.0 mi NW 9.2 mph 18.4 mph N/A   Overcast
6:15 AM 33.4 °F 27.3 °F 22.5 °F 64% 29.96 in 10.0 mi WNW 6.9 mph - N/A   Overcast
6:55 AM 33.3 °F 27.9 °F 23.5 °F 68% 29.97 in 10.0 mi WNW 5.8 mph - N/A   Overcast
7:15 AM 32.9 °F 27.5 °F 23.2 °F 67% 29.98 in 10.0 mi West 5.8 mph - N/A   Overcast
7:35 AM 32.9 °F 26.7 °F 23.2 °F 67% 29.99 in 10.0 mi WNW 6.9 mph - N/A   Scattered Clouds
7:55 AM 33.8 °F 28.6 °F 23.5 °F 66% 29.99 in 10.0 mi WNW 5.8 mph - N/A   Scattered Clouds
8:15 AM 34.5 °F 27.3 °F 23.9 °F 65% 29.99 in 10.0 mi West 9.2 mph - N/A   Scattered Clouds
8:35 AM 35.2 °F 29.5 °F 23.7 °F 63% 30.00 in 10.0 mi NW 6.9 mph - N/A   Clear
8:55 AM 36.0 °F 29.0 °F 24.3 °F 63% 29.99 in 10.0 mi WNW 9.2 mph 18.4 mph N/A   Scattered Clouds
9:15 AM 35.4 °F 28.4 °F 22.8 °F 60% 29.99 in 10.0 mi WNW 9.2 mph - N/A   Clear
9:35 AM 37.9 °F 30.5 °F 23.0 °F 55% 30.00 in 10.0 mi NW 11.5 mph 17.3 mph N/A   Clear
9:55 AM 37.4 °F 30.8 °F 23.0 °F 56% 30.00 in 10.0 mi WNW 9.2 mph - N/A   Scattered Clouds
10:15 AM 37.4 °F 30.3 °F 22.3 °F 54% 30.00 in 10.0 mi NW 10.4 mph - N/A   Mostly Cloudy
10:35 AM 37.8 °F 31.8 °F 23.0 °F 55% 30.00 in 10.0 mi WNW 8.1 mph 16.1 mph N/A   Mostly Cloudy
10:55 AM 35.6 °F 28.6 °F 24.4 °F 64% 30.00 in 10.0 mi WNW 9.2 mph - N/A   Overcast
11:15 AM 36.1 °F 31.4 °F 23.2 °F 59% 29.99 in 10.0 mi WNW 5.8 mph - N/A   Overcast
11:35 AM 37.4 °F 31.4 °F 22.8 °F 56% 29.99 in 10.0 mi NW 8.1 mph - N/A   Mostly Cloudy
11:55 AM 37.6 °F 31.0 °F 22.6 °F 55% 29.99 in 10.0 mi West 9.2 mph - N/A   Mostly Cloudy
12:15 PM 36.9 °F 29.6 °F 21.9 °F 55% 29.98 in 10.0 mi West 10.4 mph 16.1 mph N/A   Overcast
12:35 PM 36.9 °F 29.6 °F 22.6 °F 56% 29.98 in 10.0 mi NW 10.4 mph - N/A   Overcast
12:55 PM 36.0 °F 28.0 °F 21.9 °F 57% 29.99 in 10.0 mi NW 11.5 mph - N/A   Overcast
1:15 PM 35.8 °F 26.9 °F 21.2 °F 55% 29.99 in 10.0 mi NW 13.8 mph 17.3 mph N/A   Overcast
1:35 PM 36.3 °F 29.5 °F 20.3 °F 52% 29.99 in 10.0 mi NW 9.2 mph 19.6 mph N/A   Mostly Cloudy
1:55 PM 36.3 °F 27.5 °F 19.2 °F 50% 29.99 in 10.0 mi NW 13.8 mph - N/A   Mostly Cloudy
2:15 PM 35.8 °F 27.8 °F 16.7 °F 46% 29.99 in 10.0 mi NW 11.5 mph - N/A   Overcast
2:35 PM 35.4 °F 26.8 °F 17.8 °F 49% 30.00 in 10.0 mi NNW 12.7 mph 20.7 mph N/A   Overcast
2:55 PM 35.2 °F 27.1 °F 17.1 °F 48% 30.00 in 10.0 mi NW 11.5 mph 21.9 mph N/A   Overcast
3:15 PM 34.9 °F 29.0 °F 16.0 °F 46% 30.01 in 10.0 mi NW 6.9 mph - N/A   Overcast
3:35 PM 35.2 °F 28.8 °F 16.0 °F 45% 30.01 in 10.0 mi NW 8.1 mph - N/A   Mostly Cloudy
3:55 PM 34.0 °F 27.2 °F 15.8 °F 47% 30.01 in 10.0 mi NW 8.1 mph - N/A   Scattered Clouds
4:15 PM 33.6 °F 27.5 °F 16.3 °F 49% 30.02 in 10.0 mi NW 6.9 mph - N/A   Clear
4:35 PM 33.4 °F 25.4 °F 17.6 °F 52% 30.03 in 10.0 mi NW 10.4 mph 16.1 mph N/A   Clear
4:55 PM 32.5 °F 28.1 °F 18.5 °F 56% 30.03 in 10.0 mi NNW 4.6 mph - N/A   Mostly Cloudy
5:15 PM 32.9 °F 27.5 °F 19.2 °F 57% 30.04 in 10.0 mi NW 5.8 mph - N/A   Overcast
5:35 PM 33.1 °F 25.5 °F 21.2 °F 62% 30.05 in 10.0 mi WNW 9.2 mph 16.1 mph N/A   Overcast
5:55 PM 32.9 °F 28.5 °F 21.7 °F 64% 30.06 in 10.0 mi WNW 4.6 mph - N/A   Overcast
6:15 PM 32.0 °F 28.7 °F 21.2 °F 64% 30.06 in 10.0 mi WNW 3.5 mph - N/A   Scattered Clouds
6:35 PM 31.8 °F - 21.7 °F 66% 30.07 in 10.0 mi Calm Calm - N/A   Scattered Clouds
6:55 PM 31.1 °F - 21.7 °F 68% 30.07 in 10.0 mi Calm Calm - N/A   Scattered Clouds
7:15 PM 30.0 °F - 21.2 °F 70% 30.08 in 10.0 mi Calm Calm - N/A   Scattered Clouds
7:35 PM 31.1 °F 27.7 °F 19.8 °F 63% 30.08 in 10.0 mi NW 3.5 mph - N/A   Mostly Cloudy
7:55 PM 31.6 °F 25.1 °F 18.7 °F 59% 30.09 in 10.0 mi NW 6.9 mph - N/A   Overcast
8:15 PM 32.0 °F 28.7 °F 17.1 °F 54% 30.09 in 10.0 mi NNW 3.5 mph - N/A   Overcast
8:35 PM 32.0 °F 26.4 °F 17.8 °F 56% 30.09 in 10.0 mi NW 5.8 mph - N/A   Mostly Cloudy
9:15 PM 31.5 °F 28.1 °F 19.4 °F 61% 30.10 in 10.0 mi NW 3.5 mph - N/A   Overcast
9:35 PM 32.0 °F 24.8 °F 18.7 °F 58% 30.10 in 10.0 mi NW 8.1 mph - N/A   Overcast
9:55 PM 31.8 °F 28.5 °F 19.2 °F 60% 30.10 in 10.0 mi WNW 3.5 mph - N/A   Overcast
10:15 PM 31.3 °F 27.9 °F 19.2 °F 61% 30.09 in 10.0 mi NW 3.5 mph - N/A   Overcast
10:35 PM 31.8 °F - 19.2 °F 60% 30.09 in 10.0 mi Calm Calm - N/A   Overcast
11:15 PM 31.5 °F 28.1 °F 20.8 °F 65% 30.09 in 10.0 mi WNW 3.5 mph - N/A   Overcast
11:35 PM 31.1 °F 26.4 °F 21.4 °F 67% 30.10 in 10.0 mi WNW 4.6 mph - N/A   Mostly Cloudy
11:55 PM 30.6 °F - 21.4 °F 69% 30.10 in 10.0 mi Calm Calm - N/A   Scattered Clouds